Location: Brede
(50.9167°N, 0.6000°E)
Time: 03:22:19
(UTC+00:00)

Cosmos 1470 - Pass Details

Date: 08 August 2020
Orbit: 520 x 543 km, 82.5° (Epoch: 27 September)

Event Time Altitude Azimuth Distance (km) Brightness Sun altitude
Exits shadow 02:32:43 20° 173° (S) 1,291 4.3 -15.5°
Maximum altitude 02:35:20 62° 96° (E) 613 3.1 -15.2°
Drops below altitude 10° 02:39:17 10° 16° (NNE) 1,820 6.6 -14.9°
Sets 02:41:29 0° 13° (NNE) 2,720 7.6 -14.6°
